EN

Hourly Weather Tonaya

Today, 16 May, Sunday

Time Temperature Precipitation Wind Pressure Humidity
00:00 +23°C° 0 mm 0 mps 688 mmHg 79%
01:00 +23°C° 0 mm 0 mps 687 mmHg 80%
02:00 +22°C° 0 mm 0 mps 687 mmHg 80%
03:00 +22°C° 0 mm 0 mps 687 mmHg 81%
04:00 +22°C° 0 mm 0 mps 687 mmHg 81%
05:00 +22°C° 0 mm 0 mps 687 mmHg 81%
06:00 +24°C° 0 mm 0 mps 688 mmHg 73%
07:00 +25°C° 0 mm 0 mps 689 mmHg 65%
08:00 +27°C° 0 mm 0 mps 689 mmHg 57%
09:00 +29°C° 0 mm 0 mps 689 mmHg 49%
10:00 +33°C° 0 mm 1 mps 689 mmHg 40%
11:00 +35°C° 0 mm 1 mps 689 mmHg 31%
12:00 +35°C° 0 mm 1 mps 688 mmHg 28%
13:00 +36°C° 0 mm 1 mps 688 mmHg 26%
14:00 +37°C° 0 mm 2 mps 687 mmHg 23%
15:00 +36°C° 0 mm 2 mps 687 mmHg 28%
16:00 +35°C° 0 mm 3 mps 687 mmHg 33%
17:00 +34°C° 0 mm 4 mps 686 mmHg 39%
18:00 +31°C° 0 mm 3 mps 686 mmHg 47%
19:00 +30°C° 0 mm 2 mps 687 mmHg 55%
20:00 +28°C° 0 mm 1 mps 687 mmHg 63%
21:00 +27°C° 0 mm 1 mps 687 mmHg 66%
22:00 +27°C° 0 mm 1 mps 687 mmHg 68%
23:00 +26°C° 0 mm 1 mps 687 mmHg 71%

Tomorrow, 17 May, Monday

Time Temperature Precipitation Wind Pressure Humidity
00:00 +24°C° 0 mm 0 mps 687 mmHg 72%
01:00 +23°C° 0 mm 0 mps 686 mmHg 73%
02:00 +23°C° 0 mm 0 mps 686 mmHg 74%
03:00 +23°C° 0 mm 0 mps 686 mmHg 75%
04:00 +22°C° 0 mm 0 mps 686 mmHg 76%
05:00 +22°C° 0 mm 0 mps 687 mmHg 77%
06:00 +24°C° 0 mm 0 mps 687 mmHg 70%
07:00 +25°C° 0 mm 0 mps 688 mmHg 64%
08:00 +29°C° 0 mm 1 mps 688 mmHg 58%
09:00 +31°C° 0 mm 1 mps 688 mmHg 51%
10:00 +32°C° 0 mm 1 mps 688 mmHg 44%
11:00 +34°C° 0 mm 1 mps 688 mmHg 37%
12:00 +36°C° 0 mm 2 mps 688 mmHg 34%
13:00 +37°C° 0 mm 2 mps 687 mmHg 31%
14:00 +37°C° 0 mm 2 mps 686 mmHg 28%
15:00 +36°C° 0 mm 3 mps 686 mmHg 32%
16:00 +35°C° 0 mm 3 mps 686 mmHg 37%
17:00 +34°C° 0 mm 4 mps 686 mmHg 41%
18:00 +31°C° 0 mm 3 mps 686 mmHg 50%
19:00 +29°C° 0 mm 2 mps 686 mmHg 59%
20:00 +28°C° 0 mm 1 mps 687 mmHg 68%
21:00 +27°C° 0 mm 1 mps 687 mmHg 70%
22:00 +27°C° 0 mm 1 mps 687 mmHg 72%
23:00 +24°C° 0 mm 0 mps 687 mmHg 74%

Day after tomorrow, 18 May, Tuesday

Time Temperature Precipitation Wind Pressure Humidity
00:00 +24°C° 0 mm 0 mps 686 mmHg 75%
01:00 +23°C° 0 mm 0 mps 686 mmHg 76%
02:00 +23°C° 0 mm 0 mps 686 mmHg 76%
03:00 +25°C° 0 mm 1 mps 686 mmHg 79%
04:00 +24°C° 0 mm 1 mps 686 mmHg 81%
05:00 +24°C° 0 mm 1 mps 686 mmHg 84%
06:00 +25°C° 0 mm 1 mps 687 mmHg 78%
07:00 +26°C° 0 mm 1 mps 687 mmHg 73%
08:00 +27°C° 0 mm 1 mps 688 mmHg 68%
09:00 +29°C° 0 mm 1 mps 688 mmHg 59%
10:00 +31°C° 0 mm 2 mps 688 mmHg 51%
11:00 +34°C° 0 mm 2 mps 688 mmHg 42%
12:00 +35°C° 0 mm 2 mps 687 mmHg 38%
13:00 +35°C° 0 mm 2 mps 686 mmHg 33%
14:00 +36°C° 0 mm 2 mps 686 mmHg 29%
15:00 +36°C° 0 mm 3 mps 686 mmHg 32%
16:00 +35°C° 0 mm 4 mps 685 mmHg 34%
17:00 +34°C° 0 mm 4 mps 685 mmHg 37%
18:00 +31°C° 0 mm 3 mps 685 mmHg 45%
19:00 +29°C° 0 mm 2 mps 686 mmHg 54%
20:00 +27°C° 0 mm 1 mps 686 mmHg 63%
21:00 +26°C° 0 mm 1 mps 686 mmHg 66%
22:00 +26°C° 0 mm 1 mps 686 mmHg 69%
23:00 +23°C° 0 mm 0 mps 686 mmHg 72%

19 May, Wednesday

Time Temperature Precipitation Wind Pressure Humidity
00:00 +22°C° 0 mm 0 mps 686 mmHg 74%
01:00 +22°C° 0 mm 0 mps 686 mmHg 75%
02:00 +21°C° 0 mm 0 mps 685 mmHg 77%
03:00 +21°C° 0 mm 0 mps 685 mmHg 78%
04:00 +21°C° 0 mm 0 mps 685 mmHg 79%
05:00 +20°C° 0 mm 0 mps 686 mmHg 80%
06:00 +22°C° 0 mm 0 mps 686 mmHg 70%
07:00 +24°C° 0 mm 0 mps 686 mmHg 61%
08:00 +26°C° 0 mm 0 mps 687 mmHg 51%
09:00 +30°C° 0 mm 1 mps 687 mmHg 42%
10:00 +32°C° 0 mm 1 mps 687 mmHg 33%
11:00 +35°C° 0 mm 2 mps 687 mmHg 24%
12:00 +35°C° 0 mm 2 mps 686 mmHg 22%
13:00 +36°C° 0 mm 3 mps 686 mmHg 20%
14:00 +37°C° 0 mm 3 mps 685 mmHg 18%
15:00 +36°C° 0 mm 3 mps 685 mmHg 21%
16:00 +35°C° 0 mm 4 mps 685 mmHg 25%
17:00 +34°C° 0 mm 4 mps 684 mmHg 28%
18:00 +31°C° 0 mm 3 mps 685 mmHg 39%
19:00 +28°C° 0 mm 2 mps 685 mmHg 50%
20:00 +26°C° 0 mm 1 mps 685 mmHg 60%
21:00 +25°C° 0 mm 1 mps 686 mmHg 64%
22:00 +25°C° 0 mm 1 mps 686 mmHg 67%
23:00 +22°C° 0 mm 0 mps 686 mmHg 71%

20 May, Thursday

Time Temperature Precipitation Wind Pressure Humidity
00:00 +21°C° 0 mm 0 mps 685 mmHg 71%
01:00 +21°C° 0 mm 0 mps 685 mmHg 72%
02:00 +21°C° 0 mm 0 mps 685 mmHg 72%
03:00 +20°C° 0 mm 0 mps 685 mmHg 72%
04:00 +20°C° 0 mm 0 mps 685 mmHg 71%
05:00 +20°C° 0 mm 0 mps 685 mmHg 70%
06:00 +22°C° 0 mm 0 mps 685 mmHg 60%
07:00 +24°C° 0 mm 0 mps 686 mmHg 50%
08:00 +26°C° 0 mm 0 mps 686 mmHg 39%
09:00 +30°C° 0 mm 1 mps 686 mmHg 31%
10:00 +33°C° 0 mm 1 mps 686 mmHg 24%
11:00 +35°C° 0 mm 1 mps 686 mmHg 16%
12:00 +36°C° 0 mm 2 mps 686 mmHg 15%
13:00 +37°C° 0 mm 2 mps 685 mmHg 13%
14:00 +38°C° 0 mm 2 mps 685 mmHg 12%
15:00 +37°C° 0 mm 3 mps 685 mmHg 15%
16:00 +36°C° 0 mm 3 mps 684 mmHg 19%
17:00 +35°C° 0 mm 4 mps 684 mmHg 22%
18:00 +31°C° 0 mm 3 mps 684 mmHg 32%
19:00 +29°C° 0 mm 2 mps 685 mmHg 42%
20:00 +26°C° 0 mm 1 mps 685 mmHg 53%
21:00 +26°C° 0 mm 1 mps 685 mmHg 55%
22:00 +25°C° 0 mm 1 mps 685 mmHg 58%
23:00 +23°C° 0 mm 0 mps 685 mmHg 61%

21 May, Friday

Time Temperature Precipitation Wind Pressure Humidity
00:00 +22°C° 0 mm 0 mps 685 mmHg 61%
01:00 +22°C° 0 mm 0 mps 685 mmHg 61%
02:00 +22°C° 0 mm 0 mps 684 mmHg 62%
03:00 +21°C° 0 mm 0 mps 684 mmHg 63%
04:00 +21°C° 0 mm 0 mps 685 mmHg 63%
05:00 +21°C° 0 mm 0 mps 685 mmHg 64%
06:00 +23°C° 0 mm 0 mps 685 mmHg 57%
07:00 +27°C° 0 mm 1 mps 686 mmHg 49%
08:00 +29°C° 0 mm 1 mps 687 mmHg 42%
09:00 +31°C° 0 mm 1 mps 687 mmHg 35%
10:00 +33°C° 0 mm 1 mps 687 mmHg 28%
11:00 +36°C° 0 mm 2 mps 687 mmHg 20%
12:00 +36°C° 0 mm 2 mps 687 mmHg 19%
13:00 +37°C° 0 mm 2 mps 686 mmHg 18%
14:00 +38°C° 0 mm 3 mps 686 mmHg 16%
15:00 +37°C° 0 mm 3 mps 686 mmHg 20%
16:00 +36°C° 0 mm 3 mps 685 mmHg 23%
17:00 +34°C° 0 mm 4 mps 685 mmHg 26%
18:00 +31°C° 0 mm 3 mps 686 mmHg 34%
19:00 +29°C° 0 mm 2 mps 686 mmHg 42%
20:00 +26°C° 0 mm 1 mps 686 mmHg 50%
21:00 +26°C° 0 mm 1 mps 686 mmHg 52%
22:00 +25°C° 0 mm 1 mps 686 mmHg 55%
23:00 +23°C° 0 mm 0 mps 686 mmHg 58%
Show more

We Need Your Consent

Meteoprog and our Service Providers may store and access personal data such as cookies, device identifiers or other similar technologies on your device and process such data to personalise content and ads, as well as provide social media features and to analyse the traffic.

  • Store and/or access information on your device

    Cookies, device identifiers or other information can be stored or accessed on your device for the purposes indicated above.

  • Personalised ads and content, ad and content measurement, audience insights, and products development

    Ads and content can be personalised based on a profile. More data can be added to better personalise ads and content. Ad and content performance can be measured. Insights about the audience who saw the ads and content can be derived. Such data can be used to develop or improve user’s experience, systems and software.

By clicking ‘I Agree’ you will allow the use of indicated cookies, device identifiers, web beacons or other similar technologies. Your settings can be changed in the browser on your device.

For certain purposes, legitimate interests may be relied on, rather than consent. You can read more about this in our Privacy and Cookie Policy.